Cherokee, IA

11:28 PM CDT on September 15, 2019 (GMT -0500)
Cherokee Municipal

Weather History for KCKP - August, 2019

Change the Weather History Date:

Saturday, August 24, 2019

  Actual Average Record
Temperature  
Mean Temperature 65 °F -  
Max Temperature 73 °F 82 °F 98 °F (1955)
Min Temperature 58 °F 58 °F 45 °F (1956)
Growing Degree Days 15 (Base 50)    
Moisture  
Dew Point 59 °F    
Average Humidity 81    
Maximum Humidity 100    
Minimum Humidity 62    
Precipitation  
Precipitation 0.00 in - - ()
Sea Level Pressure  
Sea Level Pressure 30.13 in    
Wind  
Wind Speed 8 mph ()    
Max Wind Speed 20 mph    
Max Gust Speed 25 mph    
Visibility 10.0 miles    
Events      
Averages and records for this station are not official NWS values.
T = Trace of Precipitation, MM = Missing Value Source: Averaged Metar Reports

Daily Weather History Graph

Daily Weather History Graph

Search for Another Location

Airport or City:

Astronomy

Aug. 24, 2019 Rise Set
Actual Time 6:38 AM CDT 8:10 PM CDT
Civil Twilight 6:08 AM CDT 8:39 PM CDT
Nautical Twilight 5:32 AM CDT 9:15 PM CDT
Astronomical Twilight 4:54 AM CDT 9:53 PM CDT
Moon 12:29 AM CDT (8/24) 3:30 PM CDT (8/24)
Length of Visible Light 14h 31m
Length of Day
13h 32m
Last Quarter, 39% of the Moon is Illuminated
Aug 24
Last Quarter
Aug 30
New
Sep 5
First Quarter
Sep 13
Full
Sep 21
Last Quarter

Hourly Weather History & Observations

Time (CDT) Temp. Dew Point Humidity Pressure Visibility Wind Dir Wind Speed Gust Speed Precip Events Conditions
12:15 AM 62.6 °F 60.3 °F 92% 30.17 in 10.0 mi ESE 6.9 mph - N/A   Clear
12:35 AM 62.6 °F 60.1 °F 91% 30.17 in 10.0 mi ESE 5.8 mph - N/A   Clear
12:55 AM 61.9 °F 59.9 °F 93% 30.17 in 10.0 mi SE 4.6 mph - N/A   Clear
1:35 AM 61.7 °F 59.2 °F 91% 30.17 in 10.0 mi SE 5.8 mph - N/A   Clear
1:55 AM 61.7 °F 59.0 °F 91% 30.18 in 10.0 mi ESE 6.9 mph - N/A   Clear
2:15 AM 61.7 °F 59.0 °F 91% 30.17 in 10.0 mi ESE 8.1 mph - N/A   Clear
2:35 AM 61.7 °F 59.0 °F 91% 30.16 in 10.0 mi SE 8.1 mph - N/A   Clear
2:55 AM 61.7 °F 59.0 °F 91% 30.16 in 10.0 mi SE 9.2 mph - N/A   Clear
3:15 AM 61.3 °F 58.6 °F 91% 30.16 in 10.0 mi SE 6.9 mph - N/A   Clear
3:35 AM 60.8 °F 58.6 °F 93% 30.17 in 10.0 mi SE 8.1 mph - N/A   Clear
3:55 AM 60.3 °F 58.5 °F 94% 30.17 in 10.0 mi SE 6.9 mph - N/A   Clear
4:15 AM 59.9 °F 58.3 °F 94% 30.17 in 10.0 mi SE 5.8 mph - N/A   Clear
4:35 AM 59.0 °F 58.1 °F 97% 30.18 in 10.0 mi SE 6.9 mph - N/A   Clear
4:55 AM 58.6 °F 58.1 °F 98% 30.18 in 10.0 mi SE 5.8 mph - N/A   Clear
5:15 AM 58.3 °F 57.7 °F 98% 30.18 in 10.0 mi SE 5.8 mph - N/A   Clear
5:35 AM 58.3 °F 57.6 °F 97% 30.18 in 10.0 mi SSE 3.5 mph - N/A   Clear
5:55 AM 58.1 °F 57.7 °F 99% 30.17 in 10.0 mi SE 5.8 mph - N/A   Clear
6:15 AM 58.1 °F 57.7 °F 99% 30.17 in 10.0 mi SE 5.8 mph - N/A   Clear
6:35 AM 58.1 °F 58.1 °F 100% 30.17 in 10.0 mi ESE 8.1 mph - N/A   Clear
6:55 AM 58.3 °F 58.1 °F 99% 30.16 in 10.0 mi SE 8.1 mph - N/A   Clear
7:15 AM 58.3 °F 58.1 °F 99% 30.17 in 10.0 mi ESE 9.2 mph - N/A   Clear
7:35 AM 59.0 °F 58.3 °F 97% 30.18 in 10.0 mi SE 9.2 mph - N/A   Clear
7:55 AM 59.9 °F 58.6 °F 96% 30.18 in 10.0 mi SE 9.2 mph - N/A   Clear
8:15 AM 60.4 °F 59.0 °F 95% 30.19 in 10.0 mi SE 8.1 mph - N/A   Clear
8:35 AM 61.3 °F 59.0 °F 92% 30.19 in 10.0 mi SE 8.1 mph - N/A   Clear
8:55 AM 62.4 °F 59.0 °F 89% 30.18 in 10.0 mi SE 9.2 mph - N/A   Clear
9:35 AM 65.8 °F 59.4 °F 80% 30.16 in 10.0 mi SE 8.1 mph 16.1 mph N/A   Clear
9:55 AM 66.7 °F 59.4 °F 77% 30.16 in 10.0 mi SE 12.7 mph 17.3 mph N/A   Clear
10:15 AM 67.6 °F 59.2 °F 74% 30.17 in 10.0 mi SE 8.1 mph 19.6 mph N/A   Clear
10:35 AM 68.5 °F 58.6 °F 71% 30.17 in 10.0 mi SSE 13.8 mph 23.0 mph N/A   Clear
10:55 AM 69.3 °F 58.8 °F 69% 30.16 in 10.0 mi SE 16.1 mph 21.9 mph N/A   Clear
11:35 AM 70.0 °F 59.0 °F 68% 30.15 in 10.0 mi SE 13.8 mph 21.9 mph N/A   Clear
11:55 AM 70.7 °F 59.2 °F 67% 30.15 in 10.0 mi SE 18.4 mph 23.0 mph N/A   Clear
12:15 PM 71.4 °F 58.3 °F 63% 30.14 in 10.0 mi SE 19.6 mph 25.3 mph N/A   Clear
12:35 PM 70.7 °F 59.0 °F 66% 30.14 in 10.0 mi SE 13.8 mph 25.3 mph N/A   Clear
12:55 PM 70.7 °F 59.0 °F 66% 30.13 in 10.0 mi SE 12.7 mph 20.7 mph N/A   Clear
1:15 PM 72.5 °F 59.0 °F 62% 30.13 in 10.0 mi SSE 18.4 mph 24.2 mph N/A   Clear
1:35 PM 72.5 °F 58.8 °F 62% 30.13 in 10.0 mi SE 13.8 mph 25.3 mph N/A   Clear
1:55 PM 71.6 °F 57.9 °F 62% 30.12 in 10.0 mi SE 16.1 mph 24.2 mph N/A   Clear
2:15 PM 71.2 °F 58.3 °F 64% 30.12 in 10.0 mi SE 12.7 mph 20.7 mph N/A   Clear
2:35 PM 70.7 °F 57.4 °F 63% 30.12 in 10.0 mi SE 16.1 mph 23.0 mph N/A   Clear
2:55 PM 71.1 °F 57.7 °F 63% 30.12 in 10.0 mi SE 16.1 mph 21.9 mph N/A   Scattered Clouds
3:15 PM 70.9 °F 57.4 °F 62% 30.11 in 10.0 mi SE 13.8 mph 19.6 mph N/A   Scattered Clouds
3:35 PM 70.7 °F 57.6 °F 63% 30.11 in 10.0 mi SE 11.5 mph 18.4 mph N/A   Clear
3:55 PM 70.7 °F 59.2 °F 67% 30.11 in 10.0 mi SE 11.5 mph - N/A   Clear
4:15 PM 70.3 °F 58.6 °F 66% 30.11 in 10.0 mi SE 10.4 mph 19.6 mph N/A   Clear
4:35 PM 70.2 °F 59.2 °F 68% 30.11 in 10.0 mi SE 6.9 mph - N/A   Clear
4:55 PM 70.0 °F 59.9 °F 70% 30.11 in 10.0 mi SE 8.1 mph - N/A   Clear
5:15 PM 70.2 °F 59.9 °F 70% 30.10 in 10.0 mi SE 9.2 mph - N/A   Clear
5:35 PM 69.8 °F 60.1 °F 71% 30.10 in 10.0 mi SE 8.1 mph - N/A   Clear
5:55 PM 69.4 °F 60.3 °F 73% 30.09 in 10.0 mi SE 6.9 mph - N/A   Clear
6:15 PM 69.1 °F 59.5 °F 72% 30.09 in 10.0 mi SE 6.9 mph - N/A   Clear
6:35 PM 68.2 °F 59.4 °F 73% 30.08 in 10.0 mi ESE 5.8 mph - N/A   Clear
7:15 PM 67.1 °F 59.4 °F 76% 30.07 in 10.0 mi ESE 5.8 mph - N/A   Clear
7:35 PM 66.4 °F 59.0 °F 77% 30.07 in 10.0 mi ESE 5.8 mph - N/A   Clear
7:55 PM 65.5 °F 58.6 °F 79% 30.07 in 10.0 mi ESE 5.8 mph - N/A   Clear
8:15 PM 64.9 °F 58.3 °F 79% 30.07 in 10.0 mi ESE 5.8 mph - N/A   Clear
8:35 PM 64.8 °F 58.3 °F 79% 30.07 in 10.0 mi ESE 4.6 mph - N/A   Clear
8:55 PM 64.4 °F 58.3 °F 80% 30.07 in 10.0 mi ESE 5.8 mph - N/A   Clear
9:15 PM 63.9 °F 58.1 °F 81% 30.07 in 10.0 mi ESE 3.5 mph - N/A   Clear
9:35 PM 63.5 °F 58.1 °F 83% 30.07 in 10.0 mi ESE 5.8 mph - N/A   Clear
9:55 PM 63.1 °F 58.1 °F 84% 30.07 in 10.0 mi SE 6.9 mph - N/A   Clear
10:15 PM 62.8 °F 58.1 °F 85% 30.08 in 10.0 mi SE 4.6 mph - N/A   Clear
10:35 PM 62.8 °F 58.3 °F 85% 30.08 in 10.0 mi SE 4.6 mph - N/A   Scattered Clouds
10:55 PM 63.0 °F 58.6 °F 86% 30.07 in 10.0 mi SE 5.8 mph - N/A   Mostly Cloudy
11:15 PM 62.8 °F 59.0 °F 87% 30.08 in 10.0 mi SE 4.6 mph - N/A   Mostly Cloudy
11:35 PM 62.6 °F 59.2 °F 89% 30.07 in 10.0 mi Calm Calm - N/A   Overcast
11:55 PM 62.6 °F 59.5 °F 90% 30.07 in 10.0 mi SE 3.5 mph - N/A   Overcast